Location: Caltech
(34.1382°N, 118.1253°W)
Time: 04:38:37
(UTC-08:00)

RS-15 - Visible Passes

Search period start: 10 December 2016 00:00
Search period end: 20 December 2016 00:00
Orbit: 1882 x 2163 km, 64.8° (Epoch: 08 December)

Date Brightness Start Highest point End Pass type
(mag) Time Alt. Az. Time Alt. Az. Time Alt. Az.
10 Dec 10.0 04:43:27 10° SSE 04:52:14 26° E 05:01:17 10° NE visible
10 Dec 10.5 18:14:13 10° WNW 18:21:59 20° W 18:29:37 10° SW visible
11 Dec 10.4 04:10:04 10° SE 04:16:47 17° E 04:23:37 10° ENE visible
11 Dec 8.3 06:15:38 10° SSW 06:27:17 85° ESE 06:39:35 10° NNE visible
11 Dec 10.1 17:36:50 10° NW 17:46:29 29° WSW 17:55:54 10° SSW visible
12 Dec 10.6 03:39:37 10° ESE 03:41:26 10° E 03:43:16 10° E visible
12 Dec 8.6 05:39:56 10° SSW 05:51:22 67° ESE 06:03:23 10° NE visible
12 Dec 9.7 17:00:01 10° NW 17:10:53 40° WSW 17:21:26 10° S visible
13 Dec 9.0 05:04:36 10° S 05:15:34 51° ESE 05:27:03 10° NE visible
14 Dec 9.4 04:29:40 10° SSE 04:39:53 38° ESE 04:50:30 10° NE visible
14 Dec 10.9 18:05:57 10° WNW 18:09:25 12° W 18:12:52 10° WSW visible
15 Dec 9.8 03:55:17 10° SSE 04:04:19 27° ESE 04:13:37 10° NE visible
15 Dec 8.1 06:03:50 10° SW 06:15:31 74° WNW 06:27:50 10° NNE visible
15 Dec 10.6 17:26:39 10° WNW 17:34:03 19° W 17:41:19 10° SW visible
16 Dec 10.1 03:21:43 10° SE 03:28:51 19° E 03:36:06 10° ENE visible
16 Dec 8.2 05:27:45 10° SSW 05:39:26 88° ESE 05:51:45 10° NNE visible
17 Dec 10.4 02:50:15 10° ESE 02:53:28 11° E 02:56:43 10° ENE visible
17 Dec 8.4 04:52:00 10° SSW 05:03:29 70° ESE 05:15:35 10° NNE visible
18 Dec 8.7 04:16:37 10° S 04:27:41 53° ESE 04:39:16 10° NE visible
19 Dec 9.1 03:41:37 10° S 03:51:58 40° ESE 04:02:45 10° NE visible
19 Dec 8.2 05:52:28 10° SW 06:03:56 56° NW 06:15:59 10° NNE visible
19 Dec 10.8 17:19:17 10° W 17:21:28 11° W 17:23:38 10° WSW visible
